Temperature
17 17 17 17 16 16 16 16 16 16 16 16 16 16 16 16 16 16 16 16 16 16 16 16 16 15 15 15 15 15 15 15 15 15 15 15 15 15
17 17 17 17 16 16 16 16 16 16 16 16 16 16 16 16 16 16 16 16 16 15 15 15 15 15 15 15 15 15 15 15 15 15 15 15 15 14
16 16 16 16 16 16 16 16 16 16 16 16 15 15 15 15 15 15 15 15 15 15 15 15 15 15 15 15 15 15 15 15 15 15 14 14 14 14
16 16 16 16 16 16 16 16 16 15 15 15 15 15 15 15 15 15 15 15 15 15 15 15 15 15 14 14 14 14 14 14 14 14 14 14 14 14
16 16 16 16 16 16 16 15 15 15 15 15 15 15 14 14 14 14 14 14 14 14 14 14 14 14 14 14 14 14 14 14 14 14 14 14 14 14
16 16 16 16 16 16 15 15 15 15 15 15 14 14 14 14 14 14 14 14 14 14 14 14 14 14 14 14 14 14 14 14 14 14 14 14 13 13
16 16 16 15 15 15 15 15 15 15 14 14 14 14 13 13 13 13 13 13 13 13 14 14 14 13 13 13 13 13 13 13 13 13 13 13 13 13
16 15 15 15 15 15 15 15 14 14 14 14 14 13 13 13 13 13 13 13 13 13 13 13 13 13 13 13 13 13 13 13 13 13 13 13 13 13
15 15 15 15 15 15 14 14 14 14 14 13 13 13 13 13 13 13 12 12 12 12 12 12 12 12 13 12 12 12 13 13 13 13 12 12 12 12
15 15 15 15 14 14 14 14 14 14 13 13 13 13 13 12 12 12 12 12 12 12 12 12 12 12 12 12 12 12 12 12 12 12 12 12 12 12
15 15 14 14 14 14 14 14 13 13 13 13 13 13 12 12 12 12 12 12 12 12 12 11 12 12 12 12 11 11 12 12 12 12 12 12 12 12
14 14 14 14 14 13 13 13 13 13 13 13 12 12 12 12 12 12 12 12 11 11 11 11 11 11 11 11 11 11 11 11 11 11 11 11 11 11
14 14 14 13 13 13 13 13 13 13 12 12 12 12 12 12 12 12 11 11 11 11 11 11 11 11 11 11 11 11 11 11 11 11 11 11 11 11
14 14 13 13 13 13 13 12 12 12 12 12 12 12 11 11 11 11 11 11 11 11 11 11 10 11 10 10 10 10 10 10 10 10 10 10 10 10
13 13 13 13 13 13 12 12 12 11 11 11 11 11 11 11 11 11 11 11 11 10 10 10 10 10 10 10 10 10 10 10 10 10 10 10 10 10
13 13 12 12 12 12 12 11 11 11 11 11 11 11 10 10 10 10 10 10 10 10 10 10 10 10 10 10 10 10 10 9 9 9 9 9 9 9
12 12 12 12 12 11 11 11 11 11 11 10 10 10 10 10 10 10 10 10 10 10 10 10 10 9 9 9 9 9 9 9 9 9 9 9 9 9
12 12 12 12 11 11 11 11 11 11 10 10 10 10 10 10 9 9 9 9 9 9 9 9 9 9 9 9 9 9 9 9 9 9 9 8 8 8
12 12 11 11 11 11 11 11 10 10 10 10 9 9 9 9 9 9 9 9 9 9 9 9 9 9 8 8 8 9 8 8 8 8 8 8 8 8
11 11 11 11 11 10 10 10 10 10 9 9 9 9 9 9 9 9 9 9 9 8 8 8 8 8 8 8 8 8 8 8 8 8 8 8 8 8
11 11 11 11 10 10 10 10 10 9 9 9 9 9 9 9 9 8 8 8 8 8 8 8 8 8 8 8 8 8 8 8 8 8 8 8 8 8
11 11 10 10 10 10 10 10 9 9 9 9 9 8 8 8 8 8 8 8 8 8 8 8 8 8 8 8 7 7 8 8 8 8 8 7 7 7
10 10 10 10 10 10 9 9 9 9 8 8 8 8 8 8 8 8 8 8 8 8 8 8 8 8 7 7 7 7 7 7 7 8 8 7 7 7
Wind_Speed
2 2 2 2 2 2 3 3 3 2 2 2 1 1 1 2 3 2 2 4 4 4 4 5 5 5 4 4 4 4 4 5 6 6 7 7 8 9
2 2 2 2 2 2 3 2 3 3 2 2 2 1 2 2 2 2 2 3 3 3 3 4 4 4 4 4 4 4 4 4 4 5 6 6 6 7
2 2 2 2 2 2 2 2 2 2 3 2 1 1 1 2 3 2 2 2 2 2 2 3 3 4 4 5 5 5 5 4 4 5 5 6 6 6
3 2 3 2 2 2 2 2 2 3 3 2 1 1 1 1 2 2 2 2 2 2 2 2 2 3 3 4 4 5 4 4 4 5 5 6 6 5
4 4 4 3 2 2 2 2 2 2 2 3 1 1 1 1 1 2 3 2 3 2 2 1 2 2 3 3 3 3 3 3 4 4 5 5 5 5
4 4 4 4 4 3 2 2 2 2 2 2 1 1 1 1 1 1 2 2 3 3 3 2 1 1 2 3 3 3 3 3 3 4 5 5 5 5
2 2 3 3 3 3 2 2 3 2 2 2 2 1 1 1 1 1 1 2 2 2 3 2 2 1 2 2 3 3 3 3 4 4 4 4 4 4
2 2 1 1 2 2 3 3 4 4 4 3 2 2 2 2 1 1 0 1 2 2 2 2 2 2 2 2 2 2 3 3 3 3 4 4 4 4
3 2 2 1 2 2 2 2 2 3 4 4 4 4 3 3 2 2 1 1 2 2 1 2 2 2 2 3 2 2 2 2 2 2 3 3 4 4
3 3 3 2 2 3 2 2 1 1 2 3 4 4 3 3 3 3 2 1 2 2 1 1 2 2 2 3 2 1 1 1 0 1 2 2 3 3
3 3 3 3 3 4 4 3 1 1 0 2 2 3 3 3 3 2 2 1 1 1 1 1 1 1 1 1 2 2 2 1 1 0 1 1 2 2
2 2 3 4 4 5 4 4 3 2 1 1 1 0 1 2 3 3 3 2 1 2 1 1 1 0 1 1 1 2 2 2 2 1 0 1 1 2
3 3 3 4 5 5 5 4 5 4 2 2 1 1 0 0 1 1 2 3 2 2 2 1 1 1 1 1 1 2 2 2 2 2 2 0 1 2
5 4 4 5 5 4 3 3 3 3 2 2 1 1 0 1 1 1 1 2 3 3 3 3 2 2 1 1 1 1 2 2 2 2 2 2 1 1
4 5 5 5 4 3 3 3 4 3 2 2 2 2 2 2 1 1 0 0 1 1 1 2 2 2 2 2 2 1 2 2 1 1 2 2 1 1
3 2 3 3 2 2 2 2 2 3 3 3 2 1 1 0 0 0 0 0 0 1 2 1 1 2 2 2 2 2 2 1 2 2 2 2 2 1
3 2 1 2 2 2 1 1 2 2 2 2 2 1 1 1 1 1 0 0 1 1 1 1 1 1 1 1 1 2 2 2 2 2 1 2 2 3
4 3 3 3 4 4 3 3 3 3 3 3 3 2 2 2 2 1 1 1 2 2 2 1 0 1 1 0 2 2 2 2 2 2 1 2 3 3
4 4 4 4 4 4 4 4 4 3 3 3 3 3 3 2 2 2 2 2 2 2 2 1 1 1 2 3 2 3 3 2 2 2 2 2 3 3
3 4 4 4 4 4 4 4 4 3 3 3 3 3 3 3 3 3 3 3 3 2 2 2 2 3 4 3 3 3 4 4 2 2 2 2 3 3
3 3 4 4 4 4 4 4 4 4 3 3 3 3 3 3 4 4 3 4 3 3 3 4 4 4 2 1 1 2 2 3 4 3 2 2 2 2
3 3 3 3 3 3 3 3 3 3 3 3 3 3 3 4 4 4 4 4 4 4 4 3 1 1 2 2 3 3 2 2 2 2 4 4 2 2
4 3 3 3 3 2 2 3 3 3 3 3 3 3 3 4 4 4 4 4 4 4 3 2 1 2 2 3 3 3 2 2 2 2 2 3 5 6
Wind_Direction
213 211 215 224 208 207 193 183 181 216 255 264 279 311 308 295 313 318 300 298 285 271 259 247 238 234 230 228 223 218 218 225 228 230 235 236 236 241
217 203 216 226 210 200 197 195 191 193 227 251 248 294 336 344 347 340 321 321 303 286 277 254 238 234 230 228 227 221 221 225 226 233 240 242 245 245
228 214 227 208 190 197 189 189 191 184 214 260 252 295 323 343 352 353 348 338 322 293 282 264 243 233 233 235 233 229 229 224 226 234 238 242 243 245
229 220 230 218 194 200 197 198 194 189 195 224 238 271 281 323 352 351 356 5 339 323 295 265 247 233 242 246 248 246 240 232 228 233 236 240 241 241
223 215 220 201 206 208 203 206 203 192 186 187 214 222 257 334 10 359 3 3 355 348 342 274 248 243 245 249 255 255 256 252 242 234 235 238 242 241
224 218 213 207 207 206 205 200 184 167 163 169 195 215 255 307 357 347 349 354 347 360 5 354 320 260 251 249 253 255 257 255 251 242 237 236 237 238
222 223 217 201 193 190 189 184 169 169 171 176 193 190 228 253 278 282 318 336 333 332 339 347 350 340 323 290 265 260 259 251 244 243 238 235 234 235
210 221 209 178 166 151 151 165 171 178 184 184 199 214 233 229 226 219 210 327 313 319 328 324 343 328 333 325 296 270 262 257 245 241 238 229 226 227
196 194 198 180 158 155 133 130 151 170 177 183 199 221 223 217 204 223 231 241 255 277 300 298 306 314 322 326 314 292 278 258 248 243 236 229 221 221
197 195 189 190 186 165 155 139 145 196 197 196 209 225 223 215 206 211 217 246 272 271 237 260 290 300 326 335 342 350 350 333 272 240 233 232 223 216
200 195 192 198 194 167 162 163 162 294 150 155 181 206 212 203 175 159 166 184 265 276 240 236 258 309 328 328 353 21 34 39 26 22 232 226 219 207
215 216 203 196 194 181 178 177 195 233 214 128 118 123 174 168 163 184 189 188 220 259 246 222 229 245 317 323 351 2 14 23 26 8 287 224 187 171
208 221 221 197 197 194 185 195 211 209 195 176 172 161 143 167 176 187 198 196 205 235 220 195 213 212 208 262 315 331 354 7 15 20 15 332 198 183
208 216 216 201 199 201 196 196 183 171 173 161 159 176 239 283 291 271 224 227 230 231 216 199 208 200 194 249 279 311 340 355 3 357 13 29 34 228
211 209 203 194 191 196 197 171 161 169 172 175 192 225 241 251 289 328 342 319 306 286 246 224 218 205 197 218 234 267 305 323 333 343 345 342 329 319
213 204 184 170 170 180 175 172 178 184 186 196 211 222 217 218 275 321 272 317 337 332 352 339 223 195 195 218 221 251 272 269 297 311 314 321 328 303
166 161 170 171 183 196 202 196 187 177 185 198 194 191 194 214 272 293 228 186 227 271 315 3 36 94 210 207 218 241 251 270 276 286 295 305 302 296
156 182 192 202 209 210 210 214 207 205 204 200 200 198 208 224 248 269 254 226 243 258 268 290 12 32 13 308 224 228 247 265 282 276 271 282 296 299
179 199 206 211 220 221 217 217 219 217 205 206 211 214 217 223 230 244 244 244 250 253 260 256 230 218 257 280 274 224 239 260 271 280 278 272 283 298
210 217 222 219 219 223 224 222 221 214 211 218 224 222 221 220 225 229 232 240 246 253 260 256 241 233 241 257 265 280 248 239 246 261 279 285 283 289
222 228 229 228 226 221 219 217 216 214 215 216 222 223 224 224 229 233 231 233 242 246 250 255 258 241 244 205 248 273 282 252 240 245 255 269 285 287
228 233 235 235 229 222 213 208 209 213 215 218 221 222 223 225 232 236 237 239 243 242 250 258 229 188 205 226 250 269 288 310 300 269 247 240 250 258
236 233 229 227 219 204 201 204 210 215 216 216 219 223 226 231 239 240 241 243 246 242 243 243 225 221 230 230 241 253 264 281 292 298 299 288 260 265
Height
1531 1531 1531 1531 1531 1531 1531 1531 1532 1531 1530 1530 1531 1531 1531 1530 1530 1530 1529 1529 1529 1529 1529 1529 1529 1529 1529 1529 1529 1529 1529 1530 1530 1531 1532 1532 1533 1533
1529 1529 1529 1528 1528 1528 1528 1528 1529 1529 1528 1528 1528 1528 1528 1528 1527 1527 1527 1526 1526 1526 1526 1526 1526 1526 1526 1526 1526 1526 1526 1527 1527 1528 1528 1529 1529 1530
1526 1526 1526 1526 1526 1526 1525 1525 1525 1526 1525 1525 1525 1525 1525 1525 1525 1524 1524 1523 1523 1523 1523 1523 1523 1522 1523 1523 1523 1523 1524 1524 1524 1524 1525 1525 1526 1526
1523 1523 1523 1523 1523 1523 1523 1523 1523 1523 1523 1522 1522 1522 1522 1522 1521 1521 1521 1520 1520 1520 1520 1520 1519 1519 1519 1520 1520 1520 1520 1521 1520 1520 1521 1522 1523 1523
1520 1520 1520 1521 1520 1520 1520 1520 1520 1520 1520 1519 1519 1519 1519 1519 1518 1518 1518 1517 1517 1517 1517 1516 1516 1516 1516 1516 1516 1516 1517 1517 1517 1517 1518 1518 1519 1519
1517 1517 1517 1517 1517 1517 1517 1517 1517 1516 1516 1516 1516 1516 1516 1516 1516 1515 1514 1514 1514 1514 1514 1513 1513 1513 1513 1513 1513 1513 1513 1513 1514 1514 1514 1515 1515 1515
1514 1514 1514 1514 1514 1514 1514 1514 1514 1513 1513 1513 1513 1513 1513 1513 1513 1512 1512 1511 1511 1511 1510 1510 1510 1510 1510 1509 1510 1510 1510 1510 1510 1511 1511 1511 1512 1512
1510 1511 1511 1511 1511 1511 1511 1511 1511 1511 1511 1511 1510 1510 1510 1510 1510 1510 1509 1509 1508 1508 1507 1507 1507 1506 1506 1506 1506 1507 1507 1507 1507 1508 1508 1508 1508 1508
1508 1508 1508 1508 1508 1508 1508 1508 1508 1507 1508 1508 1508 1507 1507 1507 1507 1507 1506 1506 1505 1505 1505 1504 1504 1503 1504 1503 1503 1503 1504 1504 1504 1505 1505 1505 1505 1505
1504 1505 1505 1505 1505 1505 1505 1505 1505 1504 1505 1505 1505 1505 1505 1504 1504 1504 1504 1503 1503 1503 1502 1502 1501 1501 1501 1501 1501 1501 1501 1501 1501 1501 1502 1502 1502 1502
1501 1501 1501 1501 1502 1502 1502 1501 1501 1501 1501 1502 1502 1502 1502 1501 1501 1501 1501 1500 1500 1500 1500 1499 1499 1498 1498 1499 1499 1499 1499 1499 1498 1498 1499 1499 1499 1499
1497 1497 1497 1498 1498 1498 1498 1498 1498 1498 1498 1498 1499 1499 1499 1499 1499 1499 1498 1498 1497 1497 1497 1497 1497 1496 1496 1496 1496 1497 1496 1496 1496 1496 1496 1496 1496 1495
1493 1494 1494 1494 1495 1495 1495 1495 1495 1495 1495 1496 1496 1496 1496 1496 1496 1496 1496 1496 1495 1495 1495 1494 1494 1494 1494 1494 1494 1494 1494 1493 1493 1493 1493 1493 1492 1492
1490 1491 1491 1491 1491 1492 1491 1491 1492 1492 1492 1492 1493 1493 1493 1493 1493 1493 1493 1493 1493 1492 1492 1492 1492 1492 1492 1491 1491 1491 1491 1491 1490 1490 1489 1489 1489 1489
1486 1487 1488 1488 1488 1488 1488 1488 1488 1489 1489 1489 1489 1490 1490 1491 1491 1491 1491 1491 1490 1490 1490 1489 1489 1489 1489 1489 1489 1488 1488 1488 1488 1487 1487 1486 1486 1486
1483 1484 1484 1484 1484 1484 1485 1485 1485 1485 1485 1486 1486 1487 1488 1488 1488 1488 1488 1488 1487 1487 1487 1487 1487 1487 1486 1486 1486 1486 1486 1486 1485 1485 1484 1484 1483 1483
1479 1480 1480 1480 1480 1480 1481 1481 1481 1482 1482 1483 1483 1484 1484 1485 1485 1485 1485 1485 1484 1484 1484 1484 1484 1484 1484 1484 1483 1483 1483 1483 1483 1482 1482 1481 1480 1480
1475 1475 1475 1476 1476 1476 1477 1477 1478 1478 1478 1479 1480 1480 1481 1481 1481 1482 1482 1482 1482 1481 1481 1481 1481 1481 1481 1481 1481 1481 1480 1480 1480 1479 1479 1478 1477 1477
1470 1471 1471 1472 1473 1473 1473 1473 1474 1474 1475 1475 1476 1477 1477 1477 1478 1478 1478 1479 1479 1479 1479 1479 1479 1478 1478 1478 1478 1479 1478 1478 1477 1477 1476 1475 1474 1474
1466 1467 1467 1468 1468 1469 1470 1470 1471 1471 1471 1472 1473 1473 1474 1474 1475 1475 1475 1475 1475 1476 1476 1476 1476 1476 1476 1476 1475 1475 1476 1475 1475 1474 1473 1473 1472 1472
1463 1464 1464 1465 1465 1465 1466 1466 1467 1467 1468 1468 1469 1470 1471 1471 1472 1472 1472 1472 1472 1472 1472 1473 1473 1474 1473 1473 1473 1472 1473 1473 1472 1471 1471 1470 1469 1468
1460 1460 1461 1461 1461 1462 1462 1463 1463 1463 1464 1465 1466 1466 1467 1468 1468 1469 1469 1469 1469 1469 1469 1470 1470 1470 1470 1470 1469 1469 1469 1470 1470 1469 1469 1468 1467 1466
1457 1457 1457 1457 1457 1458 1458 1459 1459 1460 1460 1461 1462 1462 1463 1464 1465 1465 1465 1465 1465 1465 1466 1466 1466 1467 1467 1467 1467 1467 1467 1467 1466 1466 1466 1466 1466 1465